Location: Unspecified
(50.7693°N, 0.0000°E)
Time: 06:41:32
(UTC+00:00)

Transit 2A - Pass Details

Date: 20 August 2020
Orbit: 591 x 967 km, 66.7° (Epoch: 20 September)

Event Time Altitude Azimuth Distance (km) Brightness Sun altitude
Rises 03:46:41 0° 315° (NW) 3,655 9.4 -10.5°
Reaches altitude 10° 03:49:55 10° 300° (WNW) 2,680 8.6 -10.1°
Maximum altitude 03:54:22 21° 255° (WSW) 1,961 7.5 -9.5°
Drops below altitude 10° 03:58:37 10° 209° (SSW) 2,542 8.2 -8.9°
Sets 04:01:37 0° 194° (SSW) 3,412 8.9 -8.5°
